SCP
1 1 1 1 1 1 1 1 1 1 0 1 1 0 1 1 1 1 1 1 1 1 1 1 1 1 1 1 1 1 1 1 1 1 1 1 0 0 0 0 1 0 0
1 1 1 1 1 1 1 1 1 1 1 1 1 1 1 1 1 1 1 1 1 1 1 1 1 1 1 1 1 1 1 1 1 1 1 1 1 1 0 1 1 0 0
2 2 1 1 1 1 1 1 1 1 1 1 1 1 1 1 1 1 1 1 1 1 1 1 1 1 1 1 1 1 1 1 1 1 1 1 1 1 1 1 1 0 0
2 2 1 1 1 1 1 1 1 1 1 1 1 1 1 1 1 1 1 1 1 1 1 1 1 1 2 2 2 2 2 2 1 1 1 1 1 1 1 1 1 0 0
2 2 2 1 1 1 1 1 1 1 1 1 1 1 1 1 1 1 1 1 1 1 1 1 2 2 2 2 2 2 2 2 2 2 2 1 1 1 1 1 0 0 0
2 2 2 2 2 2 1 1 1 1 1 1 1 1 1 1 1 1 1 1 1 1 1 1 1 2 2 2 2 2 2 2 2 2 2 2 1 1 1 1 0 0 0
2 2 2 2 2 2 2 2 2 2 1 1 1 1 1 1 1 1 1 1 1 1 1 1 1 1 2 2 1 1 2 2 2 2 2 2 1 1 1 1 0 0 0
3 2 2 2 2 2 2 2 2 2 1 1 1 1 1 1 1 1 1 1 1 1 1 1 1 1 2 1 1 1 1 1 1 1 1 1 1 1 1 1 1 0 0
4 3 3 2 2 2 2 2 2 2 1 1 1 1 1 1 1 1 1 1 1 1 1 1 1 1 2 1 1 1 1 1 1 1 1 1 1 1 1 1 1 1 0
4 4 3 3 3 3 3 3 2 2 2 1 1 1 1 1 1 1 1 1 1 1 1 1 1 2 2 2 2 1 1 1 1 1 1 1 1 1 1 1 1 1 1
4 4 4 4 5 5 4 4 3 3 3 2 2 2 2 1 1 1 1 1 1 1 1 1 1 2 2 2 2 2 1 1 1 1 1 1 1 1 1 1 1 1 1
4 4 5 6 7 7 6 5 5 4 3 3 2 2 2 2 1 1 1 1 1 1 1 2 2 2 3 3 3 2 1 1 1 1 1 1 1 1 1 1 1 1 1
4 4 5 6 7 7 7 7 6 5 4 3 3 3 3 2 2 2 1 1 1 1 1 2 2 3 3 3 3 2 1 1 0 0 1 1 1 1 1 1 1 1 1
4 4 5 5 6 6 6 7 6 5 4 4 3 3 3 3 2 2 2 1 1 1 1 1 2 3 3 3 2 1 1 1 0 0 0 0 1 1 1 1 1 1 1
4 4 5 5 5 5 6 6 5 5 4 4 4 3 3 3 2 2 2 1 1 1 1 1 1 2 3 2 2 2 2 1 1 0 0 0 0 0 0 0 1 1 1
5 5 5 5 5 6 6 6 6 5 5 5 4 4 3 3 2 2 2 2 1 1 1 1 1 2 2 2 2 3 3 3 2 1 0 0 0 0 0 0 0 0 0
6 6 6 6 6 7 7 7 6 5 5 4 4 3 3 2 2 2 2 2 2 1 1 1 1 2 2 2 3 3 4 4 3 2 1 0 0 0 0 0 0 0 0
6 6 6 6 7 7 6 6 5 4 4 3 3 3 2 2 2 2 2 2 2 2 1 1 2 2 2 2 3 4 4 4 4 3 1 0 0 0 0 0 0 0 0
5 5 6 6 6 6 5 4 4 3 3 2 2 2 2 2 3 2 2 2 2 2 2 2 2 2 2 2 3 3 4 4 3 3 2 1 0 0 0 0 0 0 0
4 5 5 5 5 4 4 4 4 3 3 3 3 3 3 3 3 3 2 2 2 2 2 2 2 2 2 3 3 3 3 3 3 3 2 1 1 0 0 0 0 0 0
4 4 4 4 4 4 4 4 4 4 4 3 3 3 3 3 3 3 2 2 2 2 2 2 3 3 3 3 3 3 2 2 3 2 2 2 1 1 1 0 0 0 0
5 5 4 3 3 3 3 3 3 4 4 4 4 4 4 3 3 2 2 2 2 2 2 3 3 3 3 3 2 2 2 2 2 2 2 2 2 1 1 0 0 0 0
5 5 4 4 3 3 2 2 2 3 4 4 5 5 5 3 3 2 2 2 2 2 2 2 3 3 2 2 2 2 2 2 2 2 2 2 2 2 1 1 0 0 0
5 5 4 4 3 3 2 1 1 2 3 3 5 6 6 4 3 3 3 3 2 2 2 2 2 2 2 2 2 2 2 2 2 2 2 2 2 1 1 1 0 0 0
5 4 4 3 3 3 2 1 1 2 2 3 4 5 5 4 2 2 2 3 3 2 2 2 1 1 1 1 1 1 2 2 2 2 2 2 2 1 1 1 1 0 0
4 4 3 3 3 2 2 1 1 2 3 3 3 4 4 3 2 2 2 3 2 2 2 2 2 1 1 1 0 1 1 2 2 2 2 2 2 2 2 2 1 0 0
Wind_Speed
2 2 1 1 2 2 3 2 2 2 1 1 1 2 2 2 4 6 6 10 10 9 9 9 9 8 8 8 7 7 7 7 7 6 7 7 7 7 7 6 6 6 6
3 2 1 0 0 1 1 1 2 2 1 1 0 1 2 2 3 5 7 7 10 9 9 9 9 9 9 9 8 8 8 8 7 7 7 6 6 6 6 6 6 6 6
3 2 1 1 1 1 2 1 1 2 2 1 1 1 2 2 3 4 6 5 6 9 10 9 9 9 9 10 9 9 9 8 8 7 7 7 6 6 6 6 6 6 5
3 1 1 1 1 1 1 2 1 1 1 1 1 1 1 2 3 4 4 5 5 6 8 11 10 9 9 10 10 10 10 9 8 8 8 8 7 7 7 7 6 6 6
3 2 0 1 0 1 1 1 2 1 1 1 1 2 2 2 3 4 4 5 5 5 6 9 11 10 10 10 10 11 11 11 10 10 9 9 9 8 8 7 7 7 7
3 2 2 1 1 1 1 1 2 1 0 1 2 1 1 2 3 3 4 4 4 6 7 7 6 8 11 11 10 11 11 11 11 11 11 10 10 10 9 9 8 8 8
3 2 1 2 1 1 1 1 1 1 2 1 0 1 1 2 2 2 3 3 5 5 5 6 6 5 6 11 11 11 12 12 11 12 11 11 11 10 10 10 9 9 8
4 4 3 2 2 1 1 2 2 1 2 2 1 1 1 1 1 3 3 3 4 4 5 7 6 6 5 5 8 12 12 12 12 12 12 11 11 10 10 10 10 10 10
4 3 3 3 2 2 2 3 3 3 2 1 1 1 1 1 1 1 3 3 3 3 4 4 6 6 6 4 6 10 12 12 12 13 12 11 11 10 11 11 11 10 10
4 4 4 4 3 3 3 4 4 2 2 2 1 1 2 1 1 1 1 2 4 4 4 4 5 5 5 5 6 10 13 12 11 12 12 12 11 11 11 11 11 11 11
5 5 5 4 4 3 3 3 2 3 2 3 2 2 2 2 3 2 2 2 2 3 3 4 3 4 5 5 5 8 12 12 11 11 11 11 11 11 11 11 12 12 12
4 5 5 4 4 3 4 3 3 4 3 3 2 2 2 2 2 2 2 2 2 2 3 3 3 3 4 4 6 10 12 12 11 11 10 10 10 9 10 10 10 10 11
4 5 5 4 4 4 4 4 4 4 4 4 3 3 2 2 2 2 2 2 2 2 2 2 3 3 3 3 4 10 11 12 12 11 10 10 9 9 9 9 9 9 10
4 4 5 4 5 5 5 4 4 5 4 4 5 4 3 2 2 2 2 2 2 2 1 2 2 3 2 3 5 10 7 12 12 12 11 10 9 9 8 8 8 8 8
3 4 5 5 4 5 5 4 4 4 4 4 4 4 3 3 3 2 2 2 2 2 2 2 2 3 3 2 5 5 5 10 12 12 11 10 10 9 9 9 8 8 8
2 2 4 4 4 4 4 4 4 4 4 4 3 3 3 3 3 2 2 2 2 2 2 2 2 1 2 3 6 4 4 9 12 12 12 11 10 10 10 10 9 9 9
2 3 3 3 3 3 3 3 4 3 4 4 4 4 4 3 2 2 2 2 2 2 2 2 1 1 1 1 3 3 2 4 6 12 12 12 11 11 10 10 9 9 8
3 3 3 3 4 4 4 4 4 4 4 4 4 3 3 3 3 3 2 2 2 2 2 3 2 1 2 2 3 3 3 4 4 8 12 12 11 10 10 9 9 8 8
3 3 3 3 3 3 2 3 3 3 4 3 3 3 3 2 2 2 2 2 2 2 1 2 2 1 1 1 2 2 3 2 3 3 8 9 9 9 9 9 8 8 8
3 2 2 2 2 2 2 2 2 3 3 2 2 2 2 2 2 2 2 2 2 1 1 1 1 1 1 1 1 2 2 1 2 2 2 4 6 8 8 8 8 7 7
3 2 1 1 1 1 2 2 2 2 2 2 2 1 0 1 1 0 1 0 1 1 0 0 1 0 1 1 1 2 2 1 2 1 1 1 2 2 3 4 5 6 6
2 2 1 1 1 1 1 1 0 0 0 0 1 0 1 1 2 3 3 3 2 1 1 0 1 1 1 1 2 2 1 1 2 1 1 1 1 2 2 3 4 6 5
2 2 2 2 2 3 3 3 2 1 1 1 1 1 1 0 2 2 3 3 4 4 2 1 2 2 2 2 2 2 1 1 2 2 1 2 0 0 0 1 5 6 6
3 2 2 2 2 3 4 3 3 1 1 2 2 2 1 2 3 2 3 3 3 3 2 2 2 2 3 3 3 2 2 2 2 1 1 2 1 1 1 1 2 5 5
3 3 2 3 3 4 4 3 2 1 2 2 3 3 3 3 4 4 3 3 3 3 5 6 5 4 4 5 5 3 3 2 2 2 2 1 1 1 1 0 0 2 3
3 3 3 3 3 4 4 4 3 1 1 2 2 3 5 4 5 5 3 2 2 2 2 3 3 3 2 3 4 2 2 2 2 2 3 2 2 1 1 1 0 1 0
Wind_Direction
120 109 94 111 173 159 162 168 136 131 129 85 84 94 82 94 121 129 139 159 158 161 162 165 169 169 168 169 169 170 168 167 170 170 171 170 169 167 166 163 161 161 159
107 113 141 209 266 123 123 140 137 122 123 100 78 113 120 117 114 129 142 162 168 170 173 176 179 180 180 179 180 183 183 179 178 181 182 182 180 179 179 179 177 172 171
132 161 172 188 186 152 139 143 140 127 158 169 144 143 134 129 133 135 147 159 169 180 183 185 186 189 190 189 190 191 191 189 187 188 190 191 190 189 192 192 191 187 183
149 173 207 177 149 144 153 158 157 151 139 130 145 182 141 149 159 165 158 171 173 175 187 194 192 193 195 198 200 198 196 196 195 197 198 200 200 197 200 202 202 199 197
166 173 236 64 160 168 163 171 119 164 148 153 192 198 190 173 185 189 175 178 173 169 175 190 194 195 199 204 206 205 201 201 202 203 206 208 208 204 204 207 208 207 206
178 180 180 189 235 160 96 85 118 178 175 222 249 206 221 195 193 187 189 176 176 185 180 177 184 199 205 206 208 209 208 207 206 207 211 212 212 210 208 210 213 212 213
181 186 205 176 207 161 173 183 161 213 217 196 194 286 277 224 190 190 189 186 187 189 175 171 184 187 196 206 208 210 212 211 210 210 213 215 216 214 211 212 213 214 215
183 193 189 193 193 179 201 209 174 217 241 187 180 179 293 308 262 209 186 200 188 177 183 184 186 186 192 182 202 208 212 213 214 213 214 216 219 216 215 216 217 218 219
195 207 185 196 188 194 196 213 206 205 237 247 189 177 184 229 282 251 218 198 180 186 196 187 191 185 193 182 188 204 209 211 215 216 215 216 217 218 219 222 223 222 222
204 203 199 197 201 209 198 215 203 203 213 239 231 214 212 205 202 242 265 199 195 203 207 206 192 186 192 188 190 191 199 205 212 217 218 217 217 219 221 225 228 227 225
213 213 199 197 203 213 210 216 198 205 211 228 229 221 220 223 223 213 228 220 214 206 204 207 196 187 190 187 188 189 191 199 206 213 217 218 218 219 222 226 232 232 230
211 216 204 195 199 211 212 209 216 215 216 230 240 242 224 220 223 219 222 218 218 216 205 200 190 191 192 188 197 186 188 193 199 207 213 215 219 222 225 227 231 234 234
205 208 205 191 201 214 218 210 213 222 218 223 226 241 248 250 245 230 225 238 232 228 206 196 195 189 194 171 176 183 188 190 196 203 207 211 215 218 222 224 229 234 236
211 188 184 191 202 212 219 209 217 217 215 218 226 227 241 252 263 245 230 223 250 261 236 217 191 180 192 170 176 182 186 191 196 200 204 209 213 218 222 224 227 230 233
214 187 182 191 203 212 217 210 221 223 213 213 226 223 232 242 244 249 259 235 215 245 262 239 207 187 180 165 169 190 184 193 196 200 203 208 213 217 222 227 230 230 229
218 183 191 199 206 210 209 216 225 222 219 224 228 235 232 247 247 238 242 256 234 228 248 262 239 202 170 182 173 206 202 191 195 199 203 207 212 216 220 225 228 229 228
209 205 205 209 217 219 217 218 231 228 225 232 234 228 227 235 249 248 234 236 236 219 233 269 274 263 179 203 173 213 191 186 198 204 206 208 210 215 219 223 226 227 228
204 207 204 209 223 224 219 218 228 233 231 236 243 240 240 234 238 259 261 245 240 231 218 250 265 257 215 200 192 201 210 213 215 205 205 208 209 213 217 220 221 223 225
201 210 203 206 224 228 222 227 229 236 235 230 234 241 243 239 242 244 251 264 264 256 214 230 248 233 239 240 205 224 251 253 247 211 197 206 212 214 214 215 215 216 218
194 202 201 205 214 231 233 235 231 237 242 229 228 245 251 245 239 241 243 258 257 265 251 238 246 240 247 258 188 229 258 264 269 252 213 192 200 211 217 215 214 213 215
187 159 158 191 211 215 239 233 229 226 230 236 235 223 153 63 46 205 244 270 268 250 249 303 286 275 300 327 268 251 252 261 257 254 273 218 175 190 205 217 220 216 211
136 123 148 177 199 266 32 80 202 255 187 285 325 314 153 112 104 107 99 75 60 8 358 37 349 346 341 331 296 284 275 282 281 296 283 279 176 185 193 187 190 189 192
126 121 127 114 86 49 39 60 69 74 60 38 23 10 311 1 108 109 104 85 66 54 65 71 34 353 342 334 323 317 308 286 268 274 263 267 291 309 290 186 166 169 174
119 113 114 110 85 54 40 50 81 105 74 49 39 38 39 28 31 57 94 86 72 59 79 91 82 30 13 356 341 322 297 299 286 321 324 268 283 295 344 54 172 177 179
115 112 101 90 85 64 43 47 60 87 93 82 65 56 63 58 37 55 80 83 76 68 69 81 85 71 52 32 19 13 351 338 317 329 348 320 321 323 326 343 101 165 189
124 118 103 88 86 77 58 49 57 75 77 80 79 63 54 56 64 66 74 77 71 54 51 55 55 42 49 45 39 29 1 338 326 330 356 349 326 340 310 279 222 95 206